When you browse on this site, cookies collect data to enhance your experience and personalize the content and advertising you see.
Visit our Privacy Policy to learn more. By continuing to use the site, you agree to this use of cookies and data.
  • In Spain
  • List of Countries
  • For 7 days
  • Water Temperature
  • Satellite Maps
  • Weather Map
  • Weather Widgets
  • user-avatar
    Login

    Hourly Weather Chervonopillya

    Today, 19 March, Tuesday

    Time Temperature Precipitation Wind Pressure Humidity
    00:00 +5°C° 0 mm 5 mps 760 mmHg 68%
    01:00 +4°C° 0 mm 4 mps 760 mmHg 71%
    02:00 +4°C° 0 mm 3 mps 759 mmHg 76%
    03:00 +3°C° 0 mm 3 mps 759 mmHg 77%
    04:00 +3°C° 0 mm 3 mps 759 mmHg 78%
    05:00 +3°C° 0 mm 3 mps 759 mmHg 79%
    06:00 +4°C° 0 mm 4 mps 760 mmHg 76%
    07:00 +4°C° 0 mm 4 mps 760 mmHg 73%
    08:00 +5°C° 0 mm 4 mps 760 mmHg 68%
    09:00 +7°C° 0 mm 4 mps 760 mmHg 61%
    10:00 +10°C° 0 mm 4 mps 760 mmHg 53%
    11:00 +12°C° 0 mm 4 mps 760 mmHg 46%
    12:00 +13°C° 0 mm 4 mps 760 mmHg 42%
    13:00 +14°C° 0 mm 4 mps 760 mmHg 39%
    14:00 +16°C° 0 mm 3 mps 760 mmHg 32%
    15:00 +16°C° 0 mm 3 mps 760 mmHg 35%
    16:00 +16°C° 0 mm 3 mps 760 mmHg 38%
    17:00 +14°C° 0 mm 3 mps 760 mmHg 41%
    18:00 +12°C° 0 mm 3 mps 760 mmHg 48%
    19:00 +11°C° 0 mm 3 mps 760 mmHg 54%
    20:00 +8°C° 0 mm 4 mps 761 mmHg 61%
    21:00 +8°C° 0 mm 3 mps 761 mmHg 64%
    22:00 +7°C° 0 mm 3 mps 761 mmHg 68%
    23:00 +6°C° 0 mm 2 mps 761 mmHg 72%

    Tomorrow, 20 March, Wednesday

    Time Temperature Precipitation Wind Pressure Humidity
    00:00 +6°C° 0 mm 2 mps 761 mmHg 73%
    01:00 +6°C° 0 mm 1 mps 761 mmHg 75%
    02:00 +6°C° 0 mm 1 mps 761 mmHg 77%
    03:00 +6°C° 0 mm 1 mps 761 mmHg 77%
    04:00 +5°C° 0 mm 1 mps 761 mmHg 78%
    05:00 +5°C° 0 mm 1 mps 761 mmHg 79%
    06:00 +6°C° 0 mm 1 mps 762 mmHg 75%
    07:00 +7°C° 0 mm 1 mps 762 mmHg 71%
    08:00 +8°C° 0 mm 1 mps 762 mmHg 67%
    09:00 +10°C° 0 mm 1 mps 762 mmHg 60%
    10:00 +11°C° 0 mm 1 mps 762 mmHg 54%
    11:00 +13°C° 0 mm 1 mps 762 mmHg 47%
    12:00 +14°C° 0 mm 1 mps 762 mmHg 43%
    13:00 +15°C° 0 mm 2 mps 762 mmHg 40%
    14:00 +16°C° 0 mm 3 mps 762 mmHg 37%
    15:00 +14°C° 0 mm 3 mps 762 mmHg 39%
    16:00 +14°C° 0 mm 3 mps 762 mmHg 42%
    17:00 +14°C° 0 mm 4 mps 762 mmHg 44%
    18:00 +12°C° 0 mm 4 mps 763 mmHg 53%
    19:00 +10°C° 0 mm 5 mps 763 mmHg 62%
    20:00 +8°C° 0 mm 6 mps 763 mmHg 71%
    21:00 +7°C° 0 mm 5 mps 764 mmHg 70%
    22:00 +7°C° 0 mm 5 mps 764 mmHg 69%
    23:00 +6°C° 0 mm 4 mps 764 mmHg 68%

    Day after tomorrow, 21 March, Thursday

    Time Temperature Precipitation Wind Pressure Humidity
    00:00 +6°C° 0 mm 4 mps 764 mmHg 70%
    01:00 +5°C° 0 mm 4 mps 765 mmHg 72%
    02:00 +5°C° 0 mm 3 mps 765 mmHg 74%
    03:00 +4°C° 0 mm 3 mps 765 mmHg 74%
    04:00 +4°C° 0 mm 3 mps 765 mmHg 74%
    05:00 +3°C° 0 mm 3 mps 765 mmHg 73%
    06:00 +4°C° 0 mm 3 mps 765 mmHg 68%
    07:00 +5°C° 0 mm 4 mps 766 mmHg 63%
    08:00 +6°C° 0 mm 4 mps 766 mmHg 58%
    09:00 +7°C° 0 mm 4 mps 766 mmHg 51%
    10:00 +8°C° 0 mm 4 mps 766 mmHg 45%
    11:00 +9°C° 0 mm 5 mps 766 mmHg 38%
    12:00 +10°C° 0 mm 5 mps 765 mmHg 37%
    13:00 +10°C° 0 mm 5 mps 765 mmHg 35%
    14:00 +12°C° 0 mm 5 mps 764 mmHg 34%
    15:00 +10°C° 0 mm 5 mps 764 mmHg 36%
    16:00 +10°C° 0 mm 5 mps 764 mmHg 38%
    17:00 +10°C° 0 mm 5 mps 764 mmHg 40%
    18:00 +10°C° 0 mm 4 mps 764 mmHg 44%
    19:00 +8°C° 0 mm 4 mps 764 mmHg 49%
    20:00 +8°C° 0 mm 3 mps 764 mmHg 53%
    21:00 +8°C° 0 mm 3 mps 764 mmHg 56%
    22:00 +8°C° 0 mm 3 mps 764 mmHg 58%
    23:00 +7°C° 0 mm 2 mps 764 mmHg 60%

    22 March, Friday

    Time Temperature Precipitation Wind Pressure Humidity
    00:00 +7°C° 0 mm 2 mps 764 mmHg 65%
    01:00 +6°C° 0 mm 2 mps 764 mmHg 70%
    02:00 +6°C° 0 mm 2 mps 765 mmHg 74%
    03:00 +5°C° 0 mm 2 mps 764 mmHg 76%
    04:00 +5°C° 0 mm 2 mps 764 mmHg 78%
    05:00 +4°C° 0 mm 2 mps 764 mmHg 81%
    06:00 +5°C° 0 mm 2 mps 764 mmHg 77%
    07:00 +6°C° 0 mm 2 mps 765 mmHg 73%
    08:00 +7°C° 0 mm 3 mps 765 mmHg 70%
    09:00 +8°C° 0 mm 3 mps 765 mmHg 64%
    10:00 +10°C° 0 mm 3 mps 764 mmHg 58%
    11:00 +11°C° 0 mm 4 mps 764 mmHg 52%
    12:00 +12°C° 0 mm 4 mps 763 mmHg 48%
    13:00 +13°C° 0 mm 5 mps 763 mmHg 45%
    14:00 +14°C° 0 mm 5 mps 762 mmHg 41%
    15:00 +14°C° 0 mm 5 mps 762 mmHg 44%
    16:00 +14°C° 0 mm 4 mps 761 mmHg 48%
    17:00 +14°C° 0 mm 4 mps 761 mmHg 51%
    18:00 +13°C° 0 mm 4 mps 761 mmHg 57%
    19:00 +13°C° 0 mm 3 mps 761 mmHg 63%
    20:00 +12°C° 0 mm 3 mps 761 mmHg 68%
    21:00 +11°C° 0 mm 3 mps 761 mmHg 73%
    22:00 +11°C° 0 mm 4 mps 761 mmHg 77%
    23:00 +10°C° 0 mm 4 mps 761 mmHg 81%

    23 March, Saturday

    Time Temperature Precipitation Wind Pressure Humidity
    00:00 +10°C° 0 mm 4 mps 761 mmHg 82%
    01:00 +8°C° 0 mm 4 mps 761 mmHg 82%
    02:00 +9°C° 0 mm 3 mps 760 mmHg 83%
    03:00 +8°C° 0 mm 4 mps 760 mmHg 83%
    04:00 +7°C° 0 mm 4 mps 760 mmHg 83%
    05:00 +7°C° 0 mm 4 mps 760 mmHg 83%
    06:00 +7°C° 0 mm 4 mps 761 mmHg 77%
    07:00 +8°C° 0 mm 5 mps 761 mmHg 72%
    08:00 +8°C° 0 mm 5 mps 761 mmHg 67%
    09:00 +9°C° 0 mm 6 mps 762 mmHg 56%
    10:00 +10°C° 0 mm 6 mps 762 mmHg 46%
    11:00 +11°C° 0 mm 6 mps 762 mmHg 35%
    12:00 +11°C° 0 mm 6 mps 762 mmHg 33%
    13:00 +13°C° 0 mm 6 mps 761 mmHg 30%
    14:00 +13°C° 0 mm 6 mps 761 mmHg 28%
    15:00 +13°C° 0 mm 6 mps 761 mmHg 29%
    16:00 +13°C° 0 mm 5 mps 761 mmHg 30%
    17:00 +12°C° 0 mm 5 mps 761 mmHg 31%
    18:00 +11°C° 0 mm 4 mps 761 mmHg 36%
    19:00 +10°C° 0 mm 3 mps 762 mmHg 40%
    20:00 +8°C° 0 mm 2 mps 762 mmHg 44%
    21:00 +8°C° 0 mm 2 mps 762 mmHg 46%
    22:00 +8°C° 0 mm 1 mps 762 mmHg 47%
    23:00 +8°C° 0 mm 1 mps 762 mmHg 49%

    24 March, Sunday

    Time Temperature Precipitation Wind Pressure Humidity
    00:00 +7°C° 0 mm 1 mps 762 mmHg 50%
    01:00 +7°C° 0 mm 1 mps 763 mmHg 51%
    02:00 +6°C° 0 mm 0 mps 763 mmHg 52%
    03:00 +7°C° 0 mm 1 mps 762 mmHg 52%
    04:00 +6°C° 0 mm 1 mps 762 mmHg 52%
    05:00 +6°C° 0 mm 1 mps 762 mmHg 53%
    06:00 +7°C° 0 mm 1 mps 762 mmHg 50%
    07:00 +8°C° 0 mm 2 mps 762 mmHg 48%
    08:00 +9°C° 0 mm 2 mps 762 mmHg 45%
    09:00 +10°C° 0 mm 2 mps 762 mmHg 44%
    10:00 +12°C° 0 mm 3 mps 762 mmHg 43%
    11:00 +13°C° 0 mm 3 mps 762 mmHg 42%
    12:00 +14°C° 0 mm 3 mps 762 mmHg 43%
    13:00 +16°C° 0 mm 3 mps 761 mmHg 44%
    14:00 +17°C° 0 mm 3 mps 761 mmHg 46%
    15:00 +17°C° 0 mm 3 mps 760 mmHg 47%
    16:00 +17°C° 0 mm 2 mps 760 mmHg 49%
    17:00 +17°C° 0 mm 2 mps 760 mmHg 51%
    18:00 +16°C° 0 mm 2 mps 760 mmHg 53%
    19:00 +15°C° 0 mm 2 mps 760 mmHg 55%
    20:00 +14°C° 0 mm 2 mps 760 mmHg 57%
    21:00 +13°C° 0 mm 2 mps 759 mmHg 58%
    22:00 +11°C° 0 mm 3 mps 759 mmHg 59%
    23:00 +10°C° 0 mm 3 mps 759 mmHg 60%
    Show more